This is the latest recevied weather packets stored in our database for station/object W7TJC. If no packets are shown the sender has not sent any weather packets the latest 10 day(s).
| Time | Temp. | Humidity | Pressure | Rain* | Wind** | Luminosity | Snow |
|---|---|---|---|---|---|---|---|
| 1778080054 | 10.56° C | 93% | 1020.8 hPa | 0 mm | - | 12 W/m² | - |
| 1778079751 | 10.56° C | 93% | 1020.9 hPa | 0 mm | - | 15 W/m² | - |
| 1778079448 | 10.56° C | 93% | 1020.6 hPa | 0 mm | - | 15 W/m² | - |
| 1778079145 | 10.56° C | 93% | 1020.4 hPa | 0 mm | - | 22 W/m² | - |
| 1778078842 | 10.56° C | 93% | 1020.3 hPa | 0 mm | - | 16 W/m² | - |
| 1778078539 | 10.56° C | 93% | 1020.6 hPa | 0 mm | - | 16 W/m² | - |
| 1778078236 | 10.56° C | 93% | 1020.6 hPa | 0 mm | - | 16 W/m² | - |
| 1778077934 | 10.56° C | 93% | 1020.6 hPa | 0 mm | - | 14 W/m² | - |
| 1778077632 | 10.56° C | 93% | 1020.6 hPa | 0 mm | - | 8 W/m² | - |
| 1778077330 | 10.56° C | 93% | 1020.8 hPa | 0 mm | - | 7 W/m² | - |
| 1778077028 | 10.56° C | 93% | 1020.6 hPa | 0 mm | - | 8 W/m² | - |
| 1778076726 | 10.56° C | 93% | 1020.6 hPa | 0 mm | - | 6 W/m² | - |
| 1778076423 | 10.56° C | 94% | 1020.5 hPa | 0 mm | - | 5 W/m² | - |
| 1778076120 | 10.56° C | 94% | 1020.3 hPa | 0 mm | - | 5 W/m² | - |
| 1778075817 | 10.56° C | 94% | 1020.2 hPa | 0 mm | - | 5 W/m² | - |
| 1778075513 | 10.56° C | 94% | 1020.4 hPa | 0 mm | - | 3 W/m² | - |
| 1778075210 | 10.56° C | 94% | 1020.5 hPa | 0 mm | - | 3 W/m² | - |
| 1778074906 | 10° C | 94% | 1020.4 hPa | 0 mm | - | 2 W/m² | - |
| 1778074603 | 10° C | 94% | 1020.3 hPa | 0 mm | - | 2 W/m² | - |
| 1778074300 | 10° C | 94% | 1020.4 hPa | 0 mm | - | 2 W/m² | - |
| 1778073997 | 10° C | 94% | 1020.2 hPa | 0 mm | - | 2 W/m² | - |
| 1778073694 | 10° C | 94% | 1020.4 hPa | 0 mm | - | 0 W/m² | - |
| 1778073392 | 10° C | 94% | 1020.5 hPa | 0 mm | - | 0 W/m² | - |
| 1778073088 | 10° C | 94% | 1019.8 hPa | 0 mm | - | 0 W/m² | - |
| 1778072785 | 10° C | 94% | 1020.2 hPa | 0 mm | - | 0 W/m² | - |
* Rain latest hour (hover to see other rain measurements)
** Current wind speed in m/s (hover to see current wind gust speed)